Miscellaneous Local Product
Issued by NWS North Platte, NE

Home | Current Version | Previous Version | Graphics & Text | Print | Product List | Glossary On
Versions: 1 2 3 4 5 6 7 8 9 10 11 12 13 14 15 16 17 18 19 20 21 22 23 24 25 26 27 28 29 30 31 32 33 34 35 36 37 38 39 40 41 42 43 44 45 46 47 48 49 50
000
AXUS43 KLBF 041010
MISLBF


WESTERN AND NORTH CENTRAL NEBRASKA HOURLY WEATHER ROUNDUP
NATIONAL WEATHER SERVICE NORTH PLATTE NE
500 AM CDT SAT JUL 04 2015

***STATIONS NOT REPORTING VARIABLES SUCH AS SKY/WEATHER OR
PRESSURE ARE PROVIDED BY THE NEBRASKA DEPARTMENT OF
ROADS...RAWS...AND APRS NETWORKS...AND ARE NOT UNDER
NATIONAL WEATHER SERVICE QUALITY CONTROL***

...OBSERVATIONS IN AND NEAR THE EASTERN PANHANDLE OF NEBRASKA...

CITY           SKY/WX    TMP DP  RH WIND       PRES   REMARKS
PINE RIDGE     CLEAR     69  59  70 S17G26    29.92F
CHADRON        PTCLDY    71  59  65 S15       29.90F
ALLIANCE       PTCLDY    63  60  90 SE9       29.97F
SIDNEY         CLEAR     63  59  87 S7        30.02F
WHITECLAY        N/A     69  59  70 S16         N/A
CRESCENT LAKE    N/A     65  60  85 SE7         N/A
BIG SPRINGS      N/A     66  60  81 SE9         N/A
$$

...OBSERVATIONS IN NORTH CENTRAL NEBRASKA...

CITY           SKY/WX    TMP DP  RH WIND       PRES   REMARKS
VALENTINE      PTCLDY    61  59  93 S7        29.95F
THEDFORD       CLEAR     64  61  89 S7        30.00S
AINSWORTH      CLEAR     63  62  97 S7        29.97F
O`NEILL        CLEAR     61  61  99 S5        29.98F FOG
ORD            CLEAR     59  58  96 CALM      29.98F FOG
BROKEN BOW     PTCLDY    62  60  93 S6        30.00F FOG
VALENTINE NWR    N/A     61  60  95 S7          N/A
SPRINGVIEW       N/A     62  59  90 CALM        N/A
HALSEY           N/A     63  60  88 S6          N/A
BREWSTER         N/A     63  62  97 CALM        N/A
ROSE             N/A     73  72  99 S8          N/A
NEWPORT          N/A     63  63 100 S6          N/A
SARGENT          N/A     59  58  96 CALM        N/A
CHAMBERS         N/A     63  61  94 S7          N/A
EWING            N/A     60  58  95 CALM        N/A
$$

...OBSERVATIONS IN SOUTHWEST NEBRASKA AND FAR NORTHEAST COLORADO...

CITY           SKY/WX    TMP DP  RH WIND       PRES   REMARKS
WRAY           FAIR      66  60  79 E3        30.00S
HOLYOKE        FAIR      63  59  88 SE5       30.01S
IMPERIAL       PTCLDY    65  58  78 SE8       30.00S
OGALLALA       MOCLDY    65  60  83 CALM      30.00S
NORTH PLATTE   PTCLDY    66  59  78 SE8       30.00S
MCCOOK         CLEAR     63  59  87 SE5       29.99F
LEXINGTON      CLEAR     64  61  91 SE5       30.00F
PAXTON           N/A     64  60  86 SE5         N/A
GOTHENBURG       N/A     65  58  77 SE3         N/A
CALLAWAY         N/A     60  59  97 S7          N/A
$$

...NORTH PLATTE AREA...

CITY           SKY/WX    TMP DP  RH WIND       PRES   REMARKS
AIRPORT        PTCLDY    66  59  78 SE8       30.00S
DOWNTOWN         N/A     65  60  83 CALM        N/A
HILLCREST        N/A     64  60  86 SE6         N/A
$$

...SOME WEATHER OBSERVATIONS FROM AROUND THE REGION...

CITY           SKY/WX    TMP DP  RH WIND       PRES   REMARKS
DENVER         PTCLDY    68  49  50 S15       30.02F
LARAMIE        PTCLDY    54  50  86 SE10      30.12F
CHEYENNE       MOCLDY    60  54  80 E6        30.07F
SCOTTSBLUFF    MOCLDY    67  60  78 E8        29.96S
RAPID CITY     MOCLDY    63  59  87 E6        29.89F
PIERRE         PTCLDY    63  61  93 E3        29.88F
WINNER         FAIR      69  60  73 S16       29.91F
SIOUX FALLS    CLEAR     63  59  87 SW3       29.97S
OMAHA          CLEAR     57  57 100 NW5       29.99S FOG
GRAND ISLAND   CLEAR     62  59  90 S6        30.01S
KANSAS CITY    CLEAR     64  57  78 E5        29.98S
WICHITA        CLEAR     67  62  84 E7        29.98S
HAYS           CLEAR     63  55  77 E3        30.00R
LIBERAL        PTCLDY    70  63  78 E5        30.04F
GOODLAND       PTCLDY    64  59  83 S14       30.01F
$$



USA.gov is the U.S. government's official web portal to all federal, state and local government web resources and services.